Date String (YYYY-MM-DD hh:mm:ss) UTC,Instrument flags,absolute air pressure of the measurement (hPa),sample flow rate (lpm),inlet stack bypass flow (lpm),air temperature of the measurement (°C),ambient temperature measured by the external sensor (°C),aerosol sample conditioner tube jacket temperature (°C),OPC LED temperature (°C),internal box temperature (°C),relative humidity of the measurement (%),span deviation,mass concentration of particles derived from Lorenz-Mie calculation of OPC scattering (μg/m³),mass concentration of particles derived from Lorenz-Mie calculation of OPC scattering (μg/m³),mass concentration of particles derived from Lorenz-Mie calculation of OPC scattering (μg/m³)
DateTimeUTC,F1_M11,P_M11,Q1_M11,Q2_M11,T1_M11,T2_M11,T3_M11,T4_M11,T5_M11,U1_M11,ZSPAN_M11,X0_M11,X2_M11,X1_M11
2023-11-21 15:00:00,SystemResetWarning,0841.1,5.01,000.00,018.7,017.8,000.0,027.1,020.0,17.6,0000.0,0001.95,0001.35,0001.26
2023-11-21 15:01:00,SystemResetWarning,0841.0,5.00,000.00,018.7,017.8,000.0,027.1,020.0,17.3,0000.0,0001.93,0001.34,0001.27
2023-11-21 15:02:00,SystemResetWarning,0841.1,4.99,000.00,018.7,017.8,000.0,027.1,020.0,17.2,0000.0,0001.93,0001.34,0001.27
2023-11-21 15:03:00,SystemResetWarning,0841.1,5.00,000.00,018.7,017.8,000.0,027.1,020.0,17.3,0000.0,0001.90,0001.34,0001.27
2023-11-21 15:04:00,SystemResetWarning,0841.1,5.01,000.00,018.7,017.8,000.0,027.1,020.0,17.6,0000.0,0001.91,0001.36,0001.28
2023-11-21 15:05:00,SystemResetWarning,0841.0,5.01,000.00,018.7,017.9,000.0,027.1,020.0,17.4,0000.0,0001.93,0001.36,0001.28
2023-11-21 15:06:00,SystemResetWarning,0841.0,4.99,000.00,018.7,017.9,000.0,027.1,020.0,17.5,0000.0,0003.09,0001.40,0001.29
2023-11-21 15:07:00,SystemResetWarning,0841.0,5.00,000.00,018.7,017.9,000.0,027.1,020.0,17.6,0000.0,0003.60,0001.40,0001.28
2023-11-21 15:08:00,SystemResetWarning,0841.0,5.01,000.00,018.7,017.9,000.0,027.1,020.0,17.6,0000.0,0003.51,0001.40,0001.29
2023-11-21 15:09:00,SystemResetWarning,0841.1,5.01,000.00,018.8,018.0,000.0,027.1,020.0,17.7,0000.0,0003.36,0001.40,0001.28
2023-11-21 15:10:00,SystemResetWarning,0841.1,5.01,000.00,018.8,018.0,000.0,027.1,020.0,17.8,0000.0,0003.44,0001.43,0001.27
2023-11-21 15:11:00,SystemResetWarning,0841.1,5.01,000.00,018.8,018.0,000.0,027.1,020.0,17.6,0000.0,0003.44,0001.43,0001.27
2023-11-21 15:12:00,SystemResetWarning,0841.1,4.99,000.00,018.8,018.0,000.0,027.1,020.0,17.6,0000.0,0003.44,0001.43,0001.27
2023-11-21 15:13:00,SystemResetWarning,0841.0,4.99,000.00,018.8,018.0,000.0,027.1,020.0,17.6,0000.0,0003.42,0001.43,0001.27
2023-11-21 15:14:00,SystemResetWarning,0841.0,5.00,000.00,018.8,018.1,000.0,027.1,020.0,17.7,0000.0,0003.44,0001.43,0001.27
2023-11-21 15:15:00,SystemResetWarning,0841.1,5.00,000.00,018.8,018.1,000.0,027.1,020.0,17.6,0000.0,0003.41,0001.43,0001.28
2023-11-21 15:16:00,SystemResetWarning,0841.0,5.00,000.00,018.8,018.1,000.0,027.1,020.0,17.6,0000.0,0004.18,0001.45,0001.29
2023-11-21 15:17:00,SystemResetWarning,0841.0,5.00,000.00,018.8,018.1,000.0,027.1,020.0,17.7,0000.0,0004.38,0001.44,0001.29
2023-11-21 15:18:00,SystemResetWarning,0841.1,5.00,000.00,018.8,018.1,000.0,027.1,020.0,17.6,0000.0,0003.55,0001.42,0001.29
2023-11-21 15:19:00,SystemResetWarning,0841.1,5.01,000.00,018.8,018.2,000.0,027.1,020.0,17.6,0000.0,0003.51,0001.40,0001.28
2023-11-21 15:20:00,SystemResetWarning,0841.1,5.00,000.00,018.8,018.2,000.0,027.1,020.1,17.7,0000.0,0003.49,0001.39,0001.28
2023-11-21 15:21:00,SystemResetWarning,0841.1,5.00,000.00,018.9,018.2,000.0,027.1,020.1,17.7,0000.0,0003.85,0001.36,0001.28
2023-11-21 15:22:00,SystemResetWarning,0841.1,5.00,000.00,018.9,018.2,000.0,027.1,020.1,17.6,0000.0,0004.32,0001.37,0001.29
2023-11-21 15:23:00,SystemResetWarning,0841.1,5.00,000.00,018.9,018.2,000.0,027.1,020.1,17.6,0000.0,0004.34,0001.38,0001.29
2023-11-21 15:24:00,SystemResetWarning,0841.1,5.00,000.00,018.9,018.3,000.0,027.1,020.1,17.5,0000.0,0004.35,0001.38,0001.30
2023-11-21 15:25:00,SystemResetWarning,0841.0,5.00,000.00,018.9,018.3,000.0,027.1,020.2,17.6,0000.0,0004.38,0001.41,0001.30
2023-11-21 15:26:00,SystemResetWarning,0841.1,5.00,000.00,018.9,018.3,000.0,027.1,020.2,17.5,0000.0,0005.07,0001.45,0001.30
2023-11-21 15:27:00,SystemResetWarning,0841.1,5.00,000.00,018.9,018.3,000.0,027.1,020.2,17.6,0000.0,0004.73,0001.46,0001.29
2023-11-21 15:28:00,SystemResetWarning,0841.1,5.00,000.00,018.9,018.3,000.0,027.1,020.2,17.6,0000.0,0003.57,0001.46,0001.30
2023-11-21 15:29:00,SystemResetWarning,0841.1,5.00,000.00,019.0,018.3,000.0,027.2,020.2,17.6,0000.0,0003.63,0001.48,0001.31
2023-11-21 15:30:00,SystemResetWarning,0841.1,5.00,000.00,019.0,018.4,000.0,027.2,020.3,17.6,0000.0,0003.71,0001.50,0001.31
2023-11-21 15:31:00,SystemResetWarning,0841.1,5.00,000.00,019.0,018.4,000.0,027.2,020.3,17.5,0000.0,0003.86,0001.53,0001.32
2023-11-21 15:32:00,SystemResetWarning,0841.1,5.00,000.00,019.0,018.4,000.0,027.2,020.3,17.3,0000.0,0003.76,0001.56,0001.33
2023-11-21 15:33:00,SystemResetWarning,0841.1,5.00,000.00,019.0,018.4,000.0,027.2,020.3,17.3,0000.0,0003.19,0001.57,0001.34
2023-11-21 15:34:00,SystemResetWarning,0841.1,5.00,000.00,019.0,018.5,000.0,027.2,020.3,17.3,0000.0,0003.18,0001.57,0001.34
2023-11-21 15:35:00,SystemResetWarning,0841.0,5.00,000.00,019.1,018.5,000.0,027.2,020.3,17.2,0000.0,0003.20,0001.58,0001.34
2023-11-21 15:36:00,SystemResetWarning,0841.0,5.01,000.00,019.1,018.5,000.0,027.2,020.3,17.3,0000.0,0003.16,0001.56,0001.33
2023-11-21 15:37:00,SystemResetWarning,0841.0,5.00,000.00,019.1,018.5,000.0,027.2,020.4,17.5,0000.0,0002.51,0001.52,0001.33
2023-11-21 15:38:00,SystemResetWarning,0841.0,5.00,000.00,019.1,018.5,000.0,027.3,020.4,17.3,0000.0,0002.25,0001.51,0001.34
2023-11-21 15:39:00,SystemResetWarning,0841.0,4.99,000.00,019.1,018.6,000.0,027.3,020.4,17.5,0000.0,0002.28,0001.50,0001.34
2023-11-21 15:40:00,SystemResetWarning,0840.9,4.99,000.00,019.1,018.6,000.0,027.3,020.4,17.6,0000.0,0002.27,0001.49,0001.32
2023-11-21 15:41:00,SystemResetWarning,0841.0,4.99,000.00,019.2,018.6,000.0,027.3,020.5,17.4,0000.0,0002.20,0001.48,0001.32
2023-11-21 15:42:00,SystemResetWarning,0840.9,5.00,000.00,019.2,018.6,000.0,027.3,020.5,17.2,0000.0,0002.10,0001.45,0001.30
2023-11-21 15:43:00,SystemResetWarning,0840.9,5.01,000.00,019.2,018.6,000.0,027.3,020.5,17.1,0000.0,0002.15,0001.46,0001.29
2023-11-21 15:44:00,SystemResetWarning,0840.9,5.00,000.00,019.2,018.6,000.0,027.3,020.5,17.1,0000.0,0002.24,0001.46,0001.28
2023-11-21 15:45:00,SystemResetWarning,0841.0,5.00,000.00,019.2,018.7,000.0,027.4,020.5,17.3,0000.0,0002.22,0001.45,0001.28
2023-11-21 15:46:00,SystemResetWarning,0840.9,4.99,000.00,019.3,018.7,000.0,027.4,020.5,17.3,0000.0,0002.22,0001.44,0001.27
2023-11-21 15:47:00,SystemResetWarning,0841.0,4.99,000.00,019.3,018.7,000.0,027.4,020.6,17.4,0000.0,0002.23,0001.43,0001.27
2023-11-21 15:48:00,SystemResetWarning,0841.0,4.99,000.00,019.3,018.7,000.0,027.4,020.6,17.6,0000.0,0002.26,0001.43,0001.26
2023-11-21 15:49:00,SystemResetWarning,0840.9,5.01,000.00,019.3,018.8,000.0,027.4,020.6,17.4,0000.0,0002.26,0001.42,0001.25
2023-11-21 15:50:00,SystemResetWarning,0840.9,5.01,000.00,019.3,018.8,000.0,027.4,020.7,17.4,0000.0,0002.17,0001.42,0001.24
2023-11-21 15:51:00,SystemResetWarning,0840.8,5.01,000.00,019.4,018.8,000.0,027.5,020.7,17.2,0000.0,0002.10,0001.41,0001.24
2023-11-21 15:52:00,SystemResetWarning,0840.8,5.00,000.00,019.4,018.8,000.0,027.5,020.7,17.2,0000.0,0002.16,0001.43,0001.25
2023-11-21 15:53:00,SystemResetWarning,0840.8,5.00,000.00,019.4,018.8,000.0,027.5,020.7,17.0,0000.0,0002.17,0001.46,0001.25
2023-11-21 15:54:00,SystemResetWarning,0840.8,5.00,000.00,019.4,018.9,000.0,027.5,020.7,17.2,0000.0,0001.96,0001.43,0001.25
2023-11-21 15:55:00,SystemResetWarning,0840.7,5.00,000.00,019.4,018.9,000.0,027.5,020.7,17.2,0000.0,0001.82,0001.41,0001.25
2023-11-21 15:56:00,SystemResetWarning,0840.7,4.99,000.00,019.4,018.9,000.0,027.5,020.8,17.2,0000.0,0001.87,0001.42,0001.24
2023-11-21 15:57:00,SystemResetWarning,0840.7,5.00,000.00,019.5,018.9,000.0,027.6,020.8,17.4,0000.0,0001.92,0001.44,0001.24
2023-11-21 15:58:00,SystemResetWarning,0840.8,5.00,000.00,019.5,018.9,000.0,027.6,020.8,17.5,0000.0,0001.97,0001.46,0001.23
2023-11-21 15:59:00,SystemResetWarning,0840.8,5.01,000.00,019.5,018.9,000.0,027.6,020.8,17.5,0000.0,0001.93,0001.45,0001.23
